| time (UTC) | temp C | wind direction | speed KPH | gust KPH | rain 1hr cm | rain 24hr cm | rain mn cm | humidity % | barometer mb |
| 20260506033052 | 3 | 352 | 0.0 | 3.2 | 0.00 | 0.03 | 0.03 | 94 | 1014.8 |
| 20260506031559 | 3 | 352 | 3.2 | 14.5 | 0.00 | 0.03 | 0.03 | 94 | 1014.8 |
| 20260506030105 | 3 | 360 | 6.4 | 12.9 | 0.00 | 0.03 | 0.03 | 95 | 1015.0 |
| 20260506024545 | 3 | 310 | 1.6 | 9.7 | 0.03 | 0.03 | 0.03 | 94 | 1015.0 |
| 20260506023044 | 3 | 217 | 0.0 | 3.2 | 0.03 | 0.03 | 0.03 | 94 | 1014.9 |
| 20260506021543 | 3 | 217 | 0.0 | 3.2 | 0.03 | 0.03 | 0.03 | 94 | 1014.9 |
| 20260506020040 | 3 | 217 | 0.0 | 4.8 | 0.03 | 0.03 | 0.03 | 94 | 1015.1 |
| 20260506014538 | 2 | 218 | 1.6 | 4.8 | 0.00 | 0.00 | 0.00 | 94 | 1015.1 |
| 20260506013041 | 2 | 218 | 1.6 | 4.8 | 0.00 | 0.00 | 0.00 | 94 | 1015.1 |
| 20260506011534 | 2 | 225 | 3.2 | 4.8 | 0.00 | 0.00 | 0.00 | 94 | 1015.1 |
| 20260506010034 | 2 | 225 | 0.0 | 4.8 | 0.00 | 0.00 | 0.00 | 93 | 1015.2 |
| 20260506004550 | 1 | 225 | 0.0 | 4.8 | 0.00 | 0.00 | 0.00 | 93 | 1015.3 |
| 20260506003029 | 1 | 225 | 3.2 | 6.4 | 0.00 | 0.00 | 0.00 | 92 | 1015.3 |
| 20260506001527 | 2 | 337 | 1.6 | 4.8 | 0.00 | 0.00 | 0.00 | 92 | 1015.4 |
| 20260506000022 | 2 | 337 | 0.0 | 1.6 | 0.00 | 0.00 | 0.00 | 91 | 1015.3 |
| 20260505234539 | 3 | 337 | 0.0 | 4.8 | 0.00 | 0.00 | 0.00 | 92 | 1015.4 |
| 20260505233019 | 3 | 311 | 3.2 | 8.0 | 0.00 | 0.00 | 0.00 | 92 | 1015.4 |
| 20260505231516 | 3 | 321 | 3.2 | 8.0 | 0.00 | 0.00 | 0.00 | 91 | 1015.5 |
| 20260505230015 | 3 | 328 | 1.6 | 6.4 | 0.00 | 0.00 | 0.00 | 91 | 1015.6 |
| 20260505224520 | 3 | 337 | 0.0 | 4.8 | 0.00 | 0.00 | 0.00 | 90 | 1015.7 |
| 20260505223013 | 4 | 337 | 3.2 | 6.4 | 0.00 | 0.00 | 0.00 | 89 | 1015.6 |
| 20260505221513 | 5 | 10 | 4.8 | 8.0 | 0.00 | 0.00 | 0.00 | 89 | 1015.6 |
| 20260505220012 | 5 | 21 | 4.8 | 16.1 | 0.00 | 0.00 | 0.00 | 89 | 1015.6 |
| 20260505214514 | 5 | 10 | 8.0 | 17.7 | 0.00 | 0.00 | 0.00 | 89 | 1015.6 |
| 20260505213013 | 5 | 10 | 8.0 | 16.1 | 0.00 | 0.00 | 0.00 | 88 | 1015.6 |
| 20260505211511 | 6 | 358 | 9.7 | 19.3 | 0.00 | 0.00 | 0.00 | 88 | 1015.7 |
| 20260505210012 | 6 | 360 | 9.7 | 22.5 | 0.00 | 0.00 | 0.00 | 88 | 1015.7 |
| 20260505204522 | 6 | 5 | 8.0 | 22.5 | 0.00 | 0.00 | 0.00 | 88 | 1015.7 |
| 20260505203009 | 6 | 356 | 8.0 | 17.7 | 0.00 | 0.00 | 0.00 | 88 | 1015.8 |
| 20260505201508 | 6 | 26 | 12.9 | 20.9 | 0.00 | 0.00 | 0.00 | 87 | 1015.7 |
| 20260505200017 | 6 | 15 | 12.9 | 20.9 | 0.00 | 0.00 | 0.00 | 87 | 1015.7 |
| 20260505194505 | 6 | 21 | 12.9 | 24.1 | 0.00 | 0.00 | 0.00 | 86 | 1015.6 |
| 20260505193003 | 6 | 33 | 9.7 | 24.1 | 0.00 | 0.00 | 0.00 | 85 | 1015.5 |
| 20260505191503 | 7 | 32 | 12.9 | 25.7 | 0.00 | 0.00 | 0.00 | 84 | 1015.4 |
| 20260505190002 | 7 | 15 | 12.9 | 25.7 | 0.00 | 0.00 | 0.00 | 83 | 1015.4 |
| 20260505184501 | 7 | 23 | 14.5 | 24.1 | 0.00 | 0.00 | 0.00 | 82 | 1015.3 |
| 20260505183101 | 7 | 5 | 16.1 | 24.1 | 0.00 | 0.00 | 0.00 | 80 | 1015.2 |
| 20260505181600 | 8 | 10 | 16.1 | 30.6 | 0.00 | 0.00 | 0.00 | 82 | 1015.2 |
| 20260505174559 | 8 | 15 | 12.9 | 24.1 | 0.00 | 0.00 | 0.00 | 82 | 1015.2 |
| 20260505173059 | 8 | 31 | 12.9 | 29.0 | 0.00 | 0.00 | 0.00 | 82 | 1015.3 |
| 20260505171556 | 8 | 352 | 12.9 | 32.2 | 0.00 | 0.00 | 0.00 | 82 | 1015.1 |
| 20260505170058 | 8 | 25 | 14.5 | 27.4 | 0.00 | 0.00 | 0.00 | 83 | 1015.0 |
| 20260505164620 | 8 | 25 | 9.7 | 22.5 | 0.00 | 0.00 | 0.00 | 84 | 1014.9 |
| 20260505163054 | 8 | 10 | 14.5 | 30.6 | 0.00 | 0.00 | 0.00 | 84 | 1014.9 |
| 20260505161557 | 10 | 21 | 11.3 | 25.7 | 0.00 | 0.00 | 0.00 | 79 | 1014.8 |
| 20260505153050 | 10 | 360 | 12.9 | 29.0 | 0.00 | 0.00 | 0.00 | 72 | 1014.5 |
| 20260505151549 | 10 | 5 | 12.9 | 27.4 | 0.00 | 0.00 | 0.00 | 77 | 1014.4 |
| 20260505124544 | 11 | 15 | 17.7 | 27.4 | 0.00 | 0.00 | 0.00 | 83 | 1014.1 |
| 20260505123038 | 11 | 352 | 14.5 | 29.0 | 0.00 | 0.00 | 0.00 | 82 | 1014.0 |
| 20260505121541 | 11 | 21 | 14.5 | 25.7 | 0.00 | 0.00 | 0.00 | 80 | 1013.9 |
| 20260505120046 | 11 | 356 | 12.9 | 20.9 | 0.00 | 0.00 | 0.00 | 80 | 1013.8 |
| 20260505114536 | 11 | 356 | 11.3 | 20.9 | 0.00 | 0.00 | 0.00 | 78 | 1013.7 |
| 20260505113035 | 11 | 29 | 12.9 | 19.3 | 0.00 | 0.00 | 0.00 | 82 | 1013.6 |
| 20260505111535 | 11 | 59 | 11.3 | 19.3 | 0.00 | 0.00 | 0.00 | 80 | 1013.5 |
| 20260505101539 | 12 | 32 | 12.9 | 20.9 | 0.00 | 0.00 | 0.00 | 77 | 1013.5 |
| 20260505100033 | 13 | 27 | 9.7 | 19.3 | 0.00 | 0.00 | 0.00 | 74 | 1013.5 |
| 20260505094532 | 13 | 80 | 12.9 | 22.5 | 0.00 | 0.00 | 0.00 | 75 | 1013.4 |
| 20260505093031 | 13 | 5 | 1.6 | 12.9 | 0.00 | 0.00 | 0.00 | 69 | 1013.3 |
| 20260505091629 | 14 | 337 | 9.7 | 16.1 | 0.00 | 0.00 | 0.00 | 72 | 1013.3 |
| 20260505090152 | 13 | 15 | 1.6 | 14.5 | 0.00 | 0.00 | 0.00 | 73 | 1013.4 |
| 20260505084544 | 12 | 300 | 4.8 | 12.9 | 0.00 | 0.00 | 0.00 | 75 | 1013.5 |
| 20260505083036 | 12 | 252 | 1.6 | 8.0 | 0.00 | 0.00 | 0.00 | 76 | 1013.4 |
| 20260505081533 | 11 | 273 | 1.6 | 8.0 | 0.00 | 0.00 | 0.00 | 79 | 1013.5 |
| 20260505080029 | 11 | 348 | 1.6 | 11.3 | 0.00 | 0.00 | 0.00 | 79 | 1013.6 |
| 20260505074526 | 10 | 300 | 4.8 | 9.7 | 0.00 | 0.00 | 0.00 | 79 | 1013.6 |
| 20260505073033 | 10 | 304 | 3.2 | 9.7 | 0.00 | 0.00 | 0.00 | 81 | 1013.6 |
| 20260505071519 | 9 | 272 | 4.8 | 9.7 | 0.00 | 0.00 | 0.00 | 84 | 1013.7 |
| 20260505070024 | 8 | 235 | 3.2 | 8.0 | 0.00 | 0.00 | 0.00 | 87 | 1013.8 |
| 20260505064512 | 7 | 263 | 1.6 | 9.7 | 0.00 | 0.00 | 0.00 | 92 | 1013.8 |
| 20260505063014 | 7 | 236 | 3.2 | 9.7 | 0.00 | 0.00 | 0.00 | 94 | 1013.8 |
| 20260505061519 | 6 | 252 | 4.8 | 6.4 | 0.00 | 0.00 | 0.00 | 95 | 1013.7 |
| 20260505060011 | 5 | 239 | 3.2 | 9.7 | 0.00 | 0.00 | 0.00 | 96 | 1013.6 |
| 20260505054511 | 4 | 179 | 3.2 | 4.8 | 0.00 | 0.00 | 0.00 | 95 | 1013.5 |
| 20260505053015 | 4 | 197 | 1.6 | 4.8 | 0.00 | 0.00 | 0.00 | 95 | 1013.5 |
| 20260505051514 | 3 | 198 | 3.2 | 6.4 | 0.00 | 0.00 | 0.00 | 95 | 1013.5 |
| 20260505041504 | 3 | 200 | 0.0 | 0.0 | 0.00 | 0.00 | 0.00 | 94 | 1013.2 |
| 20260505040006 | 3 | 204 | 1.6 | 4.8 | 0.00 | 0.00 | 0.00 | 94 | 1013.2 |
| 20260505034600 | 3 | 208 | 1.6 | 3.2 | 0.00 | 0.00 | 0.00 | 93 | 1013.2 |